R/V Knorr Calliope CSV data file  (Time stamps are GMT)
Date, Time_GMT, Depth12, Depth35, Air_Temp, WXT5_Ta, WXT5_Pa, dec_lat, dec_lon, EDO_knt, GPS_COG, GPS_SOG, Gyro, IMET_BPR, IMET_SWR, WXT5_Ri, WXT5_Rc, HRH, WXT5_Ua, WXT5_Dm, WXT5_Sm, SBE45C, SBE45S, SBE45T, Salinity, SSCND, Fluorometer, SSTMP, SSV, Wnd_Dir, TWD_5, Wnd_Spd, TWS_5, HdChkSum=52
2008/04/03, 00:00:14, 3904.00, 0.00, 1.81, 2.30, 1024.7, 65.0517630, -5.5235050, , 52.20, 10.94, 55.90, 1025.52, 0.10, 0.0, 20.35, 85.28, 90.4, 336, 7.9, 32.61330, 34.87640, 4.1824, 34.8764, 32.6133, 95.80, 2.6863, 1460.90, 346.90, 332.1, 1.62, 4.3, 52
2008/04/03, 00:01:13, 3903.00, 0.00, 1.78, 2.30, 1025.1, 65.0534270, -5.5169730, , 53.90, 13.62, 56.80, 1025.35, 0.00, 0.0, 20.35, 85.28, 90.4, 333, 7.4, 32.61180, 34.87440, 4.1826, 34.8744, 32.6118, 93.30, 2.6827, 1460.89, 337.30, 319.9, 1.44, 4.2, 52
2008/04/03, 00:02:14, 3904.00, 0.00, 1.76, 2.30, 1025.0, 65.0550320, -5.5103330, , 61.50, 12.42, 56.30, 1025.72, 0.20, 0.0, 20.35, 85.35, 90.4, 333, 7.8, 32.60470, 34.87740, 4.1719, 34.8774, 32.6047, 92.10, 2.6808, 1460.88, 29.20, 340.2, 0.94, 3.5, 52
2008/04/03, 00:03:14, 3900.00, 0.00, 1.81, 2.30, 1024.6, 65.0567630, -5.5037220, , 55.40, 13.26, 56.40, 1025.73, 0.10, 0.0, 20.35, 85.30, 90.5, 336, 8.3, 32.60350, 34.88190, 4.1664, 34.8819, 32.6035, 90.60, 2.6807, 1460.89, 12.90, 348.1, 1.51, 4.0, 52
2008/04/03, 00:04:14, 3905.00, 0.00, 1.76, 2.40, 1025.1, 65.0582830, -5.4973220, , 61.80, 10.38, 56.00, 1025.40, 0.00, 0.0, 20.35, 85.45, 90.6, 333, 7.9, 32.59620, 34.88440, 4.1558, 34.8844, 32.5962, 91.20, 2.6815, 1460.89, 31.50, 355.9, 2.56, 4.6, 52
2008/04/03, 00:05:14, 3904.00, 0.00, 1.78, 2.40, 1024.8, 65.0599080, -5.4908930, , 57.20, 10.70, 58.00, 1025.52, 0.00, 0.0, 20.35, 85.47, 90.6, 332, 7.8, 32.60160, 34.88480, 4.1614, 34.8848, 32.6016, 88.80, 2.6832, 1460.90, 9.30, 343.1, 1.48, 4.2, 52
2008/04/03, 00:06:14, 3902.00, 0.00, 1.73, 2.40, 1024.9, 65.0616050, -5.4841150, , 56.50, 12.43, 54.90, 1025.98, 0.10, 0.0, 20.35, 85.50, 90.6, 335, 7.7, 32.59310, 34.88380, 4.1529, 34.8838, 32.5931, 90.30, 2.6848, 1460.91, 346.00, 332.8, 1.48, 4.0, 52
2008/04/03, 00:07:14, 3900.00, 0.00, 1.81, 2.40, 1024.8, 65.0633170, -5.4774570, , 62.80, 11.46, 57.80, 1025.66, 0.10, 0.0, 20.35, 85.55, 90.6, 336, 7.8, 32.58170, 34.88430, 4.1398, 34.8843, 32.5817, 90.60, 2.6857, 1460.91, 26.80, 349.9, 1.69, 3.7, 52
2008/04/03, 00:08:14, 3903.00, 0.00, 1.81, 2.40, 1025.3, 65.0649400, -5.4708400, , 61.70, 12.25, 56.90, 1025.84, 0.00, 0.0, 20.35, 85.50, 90.6, 330, 7.6, 32.58350, 34.88420, 4.1419, 34.8842, 32.5835, 90.90, 2.6863, 1460.92, 16.90, 340.7, 2.30, 4.6, 52
2008/04/03, 00:09:13, 3901.00, 0.00, 1.95, 2.40, 1025.1, 65.0666670, -5.4640750, , 54.70, 10.62, 58.50, 1025.54, 0.00, 0.0, 20.35, 85.69, 90.7, 334, 7.5, 32.57950, 34.88270, 4.1388, 34.8827, 32.5795, 90.60, 2.6869, 1460.92, 28.50, 351.0, 2.04, 3.8, 52
2008/04/03, 00:10:13, 3902.00, 0.00, 1.84, 2.40, 1024.6, 65.0683620, -5.4572350, , 60.50, 12.54, 56.20, 1025.49, -0.10, 0.0, 20.35, 85.60, 90.8, 337, 7.9, 32.57530, 34.88430, 4.1326, 34.8843, 32.5753, 90.30, 2.6877, 1460.92, 347.10, 335.8, 1.12, 3.6, 52
2008/04/03, 00:11:14, 3901.00, 0.00, 1.87, 2.40, 1025.0, 65.0700180, -5.4503720, , 61.70, 9.83, 57.90, 1025.73, 0.10, 0.0, 20.35, 85.74, 90.8, 334, 8.2, 32.58920, 34.88250, 4.1498, 34.8825, 32.5892, 91.20, 2.6879, 1460.92, 39.30, 356.5, 1.78, 4.1, 52
2008/04/03, 00:12:14, 3904.00, 0.00, 1.90, 2.40, 1024.7, 65.0717220, -5.4436120, , 68.50, 11.82, 57.90, 1025.78, 0.10, 0.0, 20.35, 85.74, 90.9, 336, 8.2, 32.57750, 34.88230, 4.1369, 34.8823, 32.5775, 92.10, 2.6866, 1460.91, 11.00, 346.6, 0.91, 3.6, 52
2008/04/03, 00:13:14, 3904.00, 0.00, 1.95, 2.40, 1025.0, 65.0734370, -5.4368520, , 54.40, 12.05, 57.40, 1025.76, 0.10, 0.0, 20.35, 85.77, 90.9, 340, 8.4, 32.59500, 34.88190, 4.1568, 34.8819, 32.5950, 91.80, 2.6856, 1460.91, 340.00, 347.9, 0.73, 3.3, 52
2008/04/03, 00:14:14, 3902.00, 0.00, 1.87, 2.40, 1024.8, 65.0750880, -5.4299170, , 59.70, 13.51, 56.40, 1025.76, 0.00, 0.0, 20.35, 85.79, 90.9, 335, 7.6, 32.57630, 34.88080, 4.1370, 34.8808, 32.5763, 92.10, 2.6846, 1460.91, 334.90, 327.4, 1.10, 3.6, 52
2008/04/03, 00:15:14, 3902.00, 0.00, 1.95, 2.40, 1024.6, 65.0768250, -5.4232630, , 62.80, 13.46, 56.20, 1025.76, -0.20, 0.0, 20.35, 85.99, 91.0, 337, 7.8, 32.58040, 34.88170, 4.1407, 34.8817, 32.5804, 91.80, 2.6835, 1460.90, 340.70, 334.1, 1.04, 3.5, 52
2008/04/03, 00:16:14, 3903.00, 0.00, 1.95, 2.40, 1025.3, 65.0785380, -5.4165280, , 57.20, 12.70, 57.20, 1025.27, -0.10, 0.0, 20.35, 85.96, 91.1, 335, 8.1, 32.58750, 34.88140, 4.1490, 34.8814, 32.5875, 92.80, 2.6819, 1460.89, 304.70, 323.3, 1.48, 4.2, 52
2008/04/03, 00:17:14, 3902.00, 0.00, 1.87, 2.40, 1025.0, 65.0801800, -5.4100700, , 55.90, 11.89, 57.60, 1026.09, 0.00, 0.0, 20.35, 85.89, 91.2, 333, 7.6, 32.58870, 34.88070, 4.1510, 34.8807, 32.5887, 93.00, 2.6802, 1460.89, 343.80, 329.4, 1.47, 4.2, 52
2008/04/03, 00:18:14, 3903.00, 0.00, 1.98, 2.40, 1025.1, 65.0819150, -5.4033280, , 53.90, 10.83, 55.80, 1026.07, 0.00, 0.0, 20.35, 86.03, 91.3, 336, 7.5, 32.59290, 34.88140, 4.1550, 34.8814, 32.5929, 91.80, 2.6784, 1460.88, 7.70, 338.9, 0.99, 3.2, 52
2008/04/03, 00:19:14, 3903.00, 0.00, 2.01, 2.50, 1025.1, 65.0836950, -5.3966830, , 57.70, 12.00, 56.40, 1025.68, 0.00, 0.0, 20.35, 86.21, 91.4, 335, 7.3, 32.59270, 34.88230, 4.1539, 34.8823, 32.5927, 90.60, 2.6776, 1460.87, 356.10, 331.1, 1.62, 4.1, 52
2008/04/03, 00:20:14, 3903.00, 0.00, 2.04, 2.50, 1024.8, 65.0853900, -5.3899920, , 57.00, 11.84, 57.40, 1025.42, 0.10, 0.0, 20.35, 86.21, 91.5, 339, 8.0, 32.59530, 34.88250, 4.1567, 34.8825, 32.5953, 90.90, 2.6772, 1460.88, 12.40, 342.0, 1.33, 3.9, 52
2008/04/03, 00:21:14, 3905.00, 0.00, 1.98, 2.50, 1024.9, 65.0871480, -5.3829100, , 49.50, 10.43, 57.60, 1025.51, 0.10, 0.0, 20.35, 86.25, 91.5, 338, 7.3, 32.57010, 34.87990, 4.1309, 34.8799, 32.5701, 92.10, 2.6775, 1460.87, 13.40, 329.9, 1.04, 3.4, 52
2008/04/03, 00:22:13, 3905.00, 0.00, 2.04, 2.60, 1024.9, 65.0889020, -5.3760380, , 61.40, 12.59, 57.00, 1025.92, 0.30, 0.0, 20.35, 86.18, 91.5, 337, 7.2, 32.57500, 34.88080, 4.1355, 34.8808, 32.5750, 91.50, 2.6786, 1460.88, 2.90, 327.1, 1.04, 3.7, 52
2008/04/03, 00:23:14, 3908.00, 0.00, 2.09, 2.60, 1024.8, 65.0906300, -5.3693300, , 60.00, 9.01, 55.80, 1025.44, 0.10, 0.0, 20.35, 86.23, 91.5, 339, 9.5, 32.58370, 34.88050, 4.1456, 34.8805, 32.5837, 92.40, 2.6803, 1460.88, 47.50, 10.7, 2.31, 5.4, 52
2008/04/03, 00:24:14, 3905.00, 0.00, 2.04, 2.60, 1024.7, 65.0923400, -5.3629180, , 58.70, 11.14, 58.60, 1025.20, 0.30, 0.0, 20.35, 86.25, 91.5, 340, 9.4, 32.57760, 34.88130, 4.1380, 34.8813, 32.5776, 92.80, 2.6812, 1460.89, 40.80, 6.0, 2.25, 4.9, 52
2008/04/03, 00:25:14, 3906.00, 0.00, 2.17, 2.60, 1024.5, 65.0939400, -5.3562370, , 62.30, 11.79, 56.80, 1025.47, 0.30, 0.0, 20.35, 86.25, 91.5, 341, 10.9, 32.60980, 34.88130, 4.1740, 34.8813, 32.6098, 94.00, 2.6820, 1460.89, 27.90, 9.0, 2.08, 6.0, 52
2008/04/03, 00:26:14, 3906.00, 0.00, 2.17, 2.70, 1024.9, 65.0956080, -5.3497280, , 57.50, 11.33, 55.40, 1025.72, 0.30, 0.0, 20.35, 86.21, 91.4, 339, 9.2, 32.59010, 34.88000, 4.1532, 34.8800, 32.5901, 94.60, 2.6825, 1460.90, 34.00, 354.8, 1.77, 4.2, 52
2008/04/03, 00:27:14, 3905.00, 0.00, 2.17, 2.70, 1024.9, 65.0973120, -5.3433920, , 50.90, 12.65, 56.90, 1025.26, 0.30, 0.0, 20.35, 86.08, 91.4, 337, 9.1, 32.58090, 34.87970, 4.1431, 34.8797, 32.5809, 95.20, 2.6846, 1460.90, 30.70, 0.7, 3.43, 5.4, 52
2008/04/03, 00:28:14, 3905.00, 0.00, 2.12, 2.70, 1024.8, 65.0990370, -5.3367770, , 64.40, 11.90, 55.40, 1025.65, 0.30, 0.0, 20.35, 86.23, 91.4, 339, 10.0, 32.59060, 34.87760, 4.1559, 34.8776, 32.5906, 95.20, 2.6897, 1460.92, 33.10, 10.1, 2.84, 5.5, 52
2008/04/03, 00:29:14, 3904.00, 0.00, 2.15, 2.70, 1024.7, 65.1008270, -5.3300200, , 57.10, 12.88, 57.20, 1025.36, 0.60, 0.0, 20.35, 86.23, 91.3, 339, 10.2, 32.59960, 34.87940, 4.1643, 34.8794, 32.5996, 94.80, 2.6961, 1460.95, 35.30, 9.8, 2.97, 5.8, 52
2008/04/03, 00:30:14, 3906.00, 0.00, 2.23, 2.70, 1025.1, 65.1025400, -5.3232720, , 57.50, 11.34, 56.50, 1025.10, 0.30, 0.0, 20.35, 86.06, 91.3, 339, 8.9, 32.58010, 34.87750, 4.1443, 34.8775, 32.5801, 94.80, 2.7070, 1460.99, 29.70, 355.0, 2.30, 4.0, 52
2008/04/03, 00:31:14, 3906.00, 0.00, 2.26, 2.70, 1024.5, 65.1043020, -5.3163920, , 55.40, 12.95, 56.00, 1025.18, 0.30, 0.0, 20.35, 85.99, 91.2, 337, 8.5, 32.60090, 34.87730, 4.1678, 34.8773, 32.6009, 94.60, 2.7192, 1461.05, 20.80, 345.9, 1.93, 4.0, 52
2008/04/03, 00:32:14, 3907.00, 0.00, 2.26, 2.70, 1024.7, 65.1059850, -5.3095630, , 65.20, 13.62, 57.90, 1025.28, 0.40, 0.0, 20.35, 85.99, 91.2, 337, 8.5, 32.58180, 34.87750, 4.1462, 34.8775, 32.5818, 94.00, 2.7333, 1461.11, 39.20, 353.8, 2.03, 3.6, 52
2008/04/03, 00:33:14, 3906.00, 0.00, 2.17, 2.70, 1024.7, 65.1077470, -5.3025850, , 55.60, 10.31, 55.30, 1025.45, 0.50, 0.0, 20.35, 85.99, 91.2, 336, 9.2, 32.57790, 34.87740, 4.1420, 34.8774, 32.5779, 94.60, 2.7509, 1461.18, 23.80, 354.4, 2.31, 4.7, 52
2008/04/03, 00:34:14, 3906.00, 0.00, 2.31, 2.70, 1024.7, 65.1095130, -5.2955950, , 56.40, 11.88, 57.70, 1025.33, 0.30, 0.0, 20.35, 86.08, 91.2, 338, 11.3, 32.58720, 34.87680, 4.1530, 34.8768, 32.5872, 93.60, 2.7693, 1461.26, 24.70, 8.6, 2.95, 6.8, 52
2008/04/03, 00:35:14, 3905.00, 0.00, 2.17, 2.80, 1024.7, 65.1112900, -5.2885800, , 58.30, 12.23, 56.10, 1025.64, 0.40, 0.0, 20.35, 85.96, 91.1, 342, 10.2, 32.58330, 34.87480, 4.1505, 34.8748, 32.5833, 92.40, 2.7884, 1461.34, 49.30, 15.2, 2.86, 4.7, 52
2008/04/03, 00:36:14, 3907.00, 0.00, 2.15, 2.80, 1024.5, 65.1129230, -5.2817020, , 62.40, 9.83, 56.80, 1025.09, 0.20, 0.0, 20.35, 85.99, 91.1, 339, 10.3, 32.58770, 34.87360, 4.1565, 34.8736, 32.5877, 92.10, 2.8076, 1461.42, 46.70, 8.6, 3.69, 6.1, 52
2008/04/03, 00:37:14, 3905.00, 0.00, 2.31, 2.80, 1024.4, 65.1145370, -5.2752270, , 63.40, 13.05, 56.50, 1025.23, 0.20, 0.0, 20.35, 85.89, 91.1, 341, 10.4, 32.59920, 34.86800, 4.1746, 34.8680, 32.5992, 90.90, 2.8270, 1461.50, 49.80, 14.1, 2.87, 5.2, 52
2008/04/03, 00:38:14, 3906.00, 0.00, 2.29, 2.80, 1024.7, 65.1162370, -5.2686730, , 58.20, 11.62, 56.50, 1025.37, 0.10, 0.0, 20.35, 85.96, 91.1, 338, 8.9, 32.62710, 34.86640, 4.2073, 34.8664, 32.6271, 90.30, 2.8456, 1461.57, 44.10, 3.5, 3.22, 4.8, 52
2008/04/03, 00:39:14, 3908.00, 0.00, 2.31, 2.80, 1024.5, 65.1179620, -5.2619670, , 61.60, 12.00, 57.10, 1025.56, 0.10, 0.0, 20.35, 85.99, 91.1, 340, 10.1, 32.63250, 34.86390, 4.2155, 34.8639, 32.6325, 90.30, 2.8640, 1461.65, 45.00, 11.8, 2.60, 5.1, 52
2008/04/03, 00:40:13, 3910.00, 0.00, 2.31, 2.80, 1025.0, 65.1196250, -5.2551050, , 54.10, 11.21, 58.20, 1025.35, 0.30, 0.0, 20.35, 85.99, 91.1, 340, 9.2, 32.65070, 34.85950, 4.2401, 34.8595, 32.6507, 91.80, 2.8819, 1461.72, 45.20, 11.6, 3.08, 5.0, 52
2008/04/03, 00:41:13, 3912.00, 0.00, 2.34, 2.80, 1024.3, 65.1213250, -5.2486300, , 55.40, 12.49, 54.90, 1025.42, 0.20, 0.0, 20.35, 86.01, 91.1, 343, 8.8, 32.66530, 34.85960, 4.2563, 34.8596, 32.6653, 91.20, 2.8990, 1461.79, 37.30, 353.2, 1.66, 3.7, 52
2008/04/03, 00:42:14, 3911.00, 0.00, 2.31, 2.80, 1024.4, 65.1230570, -5.2420230, , 58.50, 12.32, 56.70, 1025.40, 0.00, 0.0, 20.35, 86.01, 91.1, 349, 10.7, 32.69730, 34.85660, 4.2948, 34.8566, 32.6973, 91.50, 2.9147, 1461.86, 69.00, 30.6, 2.50, 5.3, 52
2008/04/03, 00:43:13, 3911.00, 0.00, 2.29, 2.80, 1024.6, 65.1248380, -5.2351220, , 61.20, 13.04, 58.00, 1025.32, 0.10, 0.0, 20.35, 86.01, 91.0, 1, 10.8, 32.70230, 34.85620, 4.3008, 34.8562, 32.7023, 92.10, 2.9301, 1461.92, 100.80, 47.3, 1.42, 3.2, 52
2008/04/03, 00:44:14, 3915.00, 0.00, 2.29, 2.80, 1024.5, 65.1264850, -5.2286870, , 63.80, 12.34, 57.40, 1025.00, -0.20, 0.0, 20.35, 86.01, 90.9, 4, 10.9, 32.72820, 34.85230, 4.3332, 34.8523, 32.7282, 92.80, 2.9429, 1461.97, 105.10, 59.6, 4.43, 5.7, 52
2008/04/03, 00:45:14, 3917.00, 0.00, 2.34, 2.80, 1024.8, 65.1282050, -5.2219700, , 57.30, 11.82, 58.40, 1025.15, -0.10, 0.0, 20.35, 85.94, 90.8, 5, 10.8, 32.76060, 34.85290, 4.3688, 34.8529, 32.7606, 93.00, 2.9533, 1462.02, 125.00, 59.6, 4.18, 4.4, 52
2008/04/03, 00:46:14, 3919.00, 0.00, 2.15, 2.70, 1024.5, 65.1298630, -5.2151920, , 61.30, 12.19, 56.40, 1025.03, 0.00, 0.0, 20.35, 85.82, 90.8, 5, 9.3, 32.75230, 34.85160, 4.3608, 34.8516, 32.7523, 92.80, 2.9614, 1462.05, 137.60, 52.8, 3.58, 2.2, 52
2008/04/03, 00:47:14, 3919.00, 0.00, 2.23, 2.70, 1024.4, 65.1315350, -5.2085500, , 63.30, 10.91, 58.70, 1025.35, 0.00, 0.0, 20.35, 85.77, 90.7, 3, 11.1, 32.77280, 34.85070, 4.3845, 34.8507, 32.7728, 91.80, 2.9670, 1462.08, 110.80, 47.6, 3.79, 5.6, 52
2008/04/03, 00:48:14, 3919.00, 0.00, 2.06, 2.70, 1024.8, 65.1331820, -5.2019150, , 65.50, 11.46, 58.30, 1025.10, 0.20, 0.0, 20.35, 85.62, 90.7, 9, 10.1, 32.78310, 34.84980, 4.3969, 34.8498, 32.7831, 92.80, 2.9713, 1462.09, 122.70, 64.5, 3.62, 3.6, 52
2008/04/03, 00:49:14, 3918.00, 0.00, 2.15, 2.70, 1024.3, 65.1348980, -5.1952500, , 51.80, 11.18, 57.20, 1025.48, 0.00, 0.0, 20.35, 85.74, 90.7, 3, 11.9, 32.79850, 34.85020, 4.4136, 34.8502, 32.7985, 91.80, 2.9741, 1462.10, 114.70, 56.6, 4.82, 6.6, 52
2008/04/03, 00:50:14, 3919.00, 0.00, 2.17, 2.60, 1024.5, 65.1366400, -5.1885780, , 59.90, 12.20, 56.10, 1025.40, 0.10, 0.0, 20.35, 85.52, 90.4, 3, 11.8, 32.81480, 34.84910, 4.4328, 34.8491, 32.8148, 91.20, 2.9758, 1462.11, 112.30, 57.1, 4.91, 6.2, 52
2008/04/03, 00:51:14, 3919.00, 0.00, 1.98, 2.60, 1024.1, 65.1383600, -5.1818930, , 57.10, 8.97, 58.20, 1025.25, -0.10, 0.0, 20.35, 85.25, 89.8, 359, 11.9, 32.81640, 34.84940, 4.4343, 34.8494, 32.8164, 92.10, 2.9771, 1462.12, 106.30, 55.2, 5.91, 7.4, 52
2008/04/03, 00:52:14, 3917.00, 0.00, 1.95, 2.50, 1024.3, 65.1400730, -5.1754750, , 58.10, 10.69, 57.70, 1025.47, 0.20, 0.0, 20.35, 84.89, 89.5, 357, 11.9, 32.82280, 34.84740, 4.4434, 34.8474, 32.8228, 91.80, 2.9779, 1462.12, 101.30, 47.8, 5.32, 6.8, 52
2008/04/03, 00:53:13, 3917.00, 0.00, 2.01, 2.40, 1024.0, 65.1417280, -5.1688330, , 58.50, 11.13, 56.30, 1024.83, -0.30, 0.0, 20.35, 84.67, 89.5, 0, 11.7, 32.85650, 34.84950, 4.4789, 34.8495, 32.8565, 91.20, 2.9784, 1462.12, 108.60, 52.9, 4.71, 5.8, 52
2008/04/03, 00:54:14, 3920.00, 0.00, 1.98, 2.40, 1024.4, 65.1434850, -5.1620600, , 60.60, 13.58, 56.90, 1025.61, -0.20, 0.0, 20.35, 84.50, 89.4, 0, 12.2, 32.83300, 34.84870, 4.4535, 34.8487, 32.8330, 91.50, 2.9787, 1462.12, 111.10, 48.5, 3.94, 6.0, 52
2008/04/03, 00:55:14, 3920.00, 0.00, 1.84, 2.40, 1024.2, 65.1452370, -5.1556220, , 60.90, 9.78, 58.40, 1025.49, -0.20, 0.0, 20.35, 84.67, 89.4, 1, 11.3, 32.83880, 34.84820, 4.4604, 34.8482, 32.8388, 91.80, 2.9782, 1462.12, 104.00, 55.4, 4.97, 5.9, 52
2008/04/03, 00:56:14, 3919.00, 0.00, 1.95, 2.40, 1024.4, 65.1468900, -5.1493380, , 61.00, 12.93, 56.90, 1025.19, 0.00, 0.0, 20.35, 84.67, 89.3, 0, 10.3, 32.83150, 34.84830, 4.4522, 34.8483, 32.8315, 91.50, 2.9774, 1462.12, 123.80, 54.8, 4.23, 3.3, 52
2008/04/03, 00:57:14, 3919.00, 0.00, 1.87, 2.40, 1024.4, 65.1485720, -5.1429650, , 55.80, 11.95, 56.70, 1025.14, -0.20, 0.0, 20.35, 84.72, 89.5, 359, 11.5, 32.85090, 34.84740, 4.4747, 34.8474, 32.8509, 92.10, 2.9763, 1462.11, 119.30, 46.8, 3.84, 4.9, 52
2008/04/03, 00:58:14, 3917.00, 0.00, 1.95, 2.40, 1024.3, 65.1503150, -5.1363600, , 54.40, 12.74, 57.50, 1024.86, -0.40, 0.0, 20.35, 84.77, 89.6, 357, 11.8, 32.83900, 34.84700, 4.4618, 34.8470, 32.8390, 92.10, 2.9751, 1462.10, 115.80, 42.9, 3.84, 5.5, 52
2008/04/03, 00:59:14, 3913.00, 0.00, 1.81, 2.40, 1024.2, 65.1520350, -5.1298730, , 55.80, 12.04, 56.80, 1025.01, -0.30, 0.0, 20.35, 84.96, 89.6, 358, 12.0, 32.83710, 34.84720, 4.4594, 34.8472, 32.8371, 91.80, 2.9741, 1462.10, 108.00, 45.8, 3.89, 5.7, 52
2008/04/03, 01:00:14, 3906.00, 0.00, 1.81, 2.30, 1024.3, 65.1538670, -5.1232230, , 58.70, 11.25, 57.60, 1024.91, -0.20, 0.0, 20.35, 85.03, 89.7, 355, 11.3, 32.82830, 34.84660, 4.4502, 34.8466, 32.8283, 91.20, 2.9742, 1462.10, 108.00, 43.4, 4.20, 5.2, 52
2008/04/03, 01:01:14, 3900.00, 0.00, 1.78, 2.30, 1023.9, 65.1556300, -5.1164630, , 56.60, 14.02, 55.90, 1025.22, -0.40, 0.0, 20.35, 85.08, 89.7, 356, 12.0, 32.82420, 34.84780, 4.4445, 34.8478, 32.8242, 91.50, 2.9752, 1462.10, 97.00, 43.4, 4.28, 6.1, 52
2008/04/03, 01:02:14, 3895.00, 0.00, 1.73, 2.20, 1024.6, 65.1573780, -5.1097980, , 60.60, 13.71, 57.70, 1025.66, -0.40, 0.0, 20.35, 85.13, 89.7, 355, 11.5, 32.81900, 34.84700, 4.4395, 34.8470, 32.8190, 91.50, 2.9763, 1462.11, 109.40, 47.0, 4.25, 5.1, 52
2008/04/03, 01:03:14, 3902.00, 0.00, 1.62, 2.20, 1024.3, 65.1591570, -5.1032900, , 52.60, 12.14, 55.60, 1024.85, -0.50, 0.0, 20.35, 85.21, 89.8, 354, 10.6, 32.82300, 34.84730, 4.4437, 34.8473, 32.8230, 92.40, 2.9771, 1462.11, 105.90, 38.7, 4.11, 4.6, 52
2008/04/03, 01:04:13, 3897.00, 0.00, 1.62, 2.10, 1024.9, 65.1608320, -5.0966680, , 61.70, 11.82, 57.20, 1025.61, -0.30, 0.0, 20.35, 85.23, 89.9, 356, 11.2, 32.82110, 34.84600, 4.4428, 34.8460, 32.8211, 92.80, 2.9775, 1462.11, 108.90, 47.3, 4.21, 5.3, 52
2008/04/03, 01:05:13, 3899.00, 0.00, 1.59, 2.10, 1024.8, 65.1625530, -5.0902800, , 55.10, 12.87, 55.90, 1025.28, -0.30, 0.0, 20.35, 85.38, 90.2, 353, 10.3, 32.81480, 34.84780, 4.4340, 34.8478, 32.8148, 92.10, 2.9769, 1462.11, 102.70, 20.7, 2.72, 4.2, 52
2008/04/03, 01:06:14, 3895.00, 0.00, 1.59, 2.10, 1024.4, 65.1642650, -5.0838130, , 55.10, 11.49, 56.80, 1025.28, -0.40, 0.0, 20.35, 85.52, 90.3, 352, 11.2, 32.81870, 34.84650, 4.4396, 34.8465, 32.8187, 92.80, 2.9764, 1462.11, 94.20, 33.1, 3.41, 5.8, 52
2008/04/03, 01:07:14, 3899.00, 0.00, 1.59, 2.10, 1024.1, 65.1659450, -5.0774320, , 55.40, 11.25, 57.60, 1025.33, -0.30, 0.0, 20.35, 85.43, 90.3, 356, 9.7, 32.81360, 34.84640, 4.4340, 34.8464, 32.8136, 92.10, 2.9759, 1462.10, 94.10, 37.0, 3.67, 4.1, 52
2008/04/03, 01:08:14, 3960.00, 0.00, 1.48, 2.10, 1024.5, 65.1676300, -5.0708200, , 57.00, 12.78, 57.10, 1025.64, -0.20, 0.0, 20.35, 85.50, 90.4, 353, 9.3, 32.82950, 34.84560, 4.4525, 34.8456, 32.8295, 92.80, 2.9757, 1462.10, 118.40, 14.0, 2.39, 3.1, 52
2008/04/03, 01:09:14, 3873.00, 0.00, 1.48, 2.10, 1024.8, 65.1693130, -5.0644270, , 60.30, 10.62, 58.00, 1025.16, -0.50, 0.0, 20.35, 85.55, 90.4, 354, 8.5, 32.82830, 34.84500, 4.4518, 34.8450, 32.8283, 91.80, 2.9767, 1462.11, 99.30, 33.7, 3.54, 3.1, 52
2008/04/03, 01:10:14, 3875.00, 0.00, 1.42, 2.10, 1024.4, 65.1710100, -5.0577450, , 60.90, 12.16, 57.90, 1025.36, -0.30, 0.0, 20.35, 85.67, 90.6, 352, 9.5, 32.83000, 34.84400, 4.4547, 34.8440, 32.8300, 91.50, 2.9780, 1462.11, 107.90, 27.7, 2.84, 3.6, 52
2008/04/03, 01:11:14, 3864.00, 0.00, 1.48, 2.00, 1024.3, 65.1727970, -5.0511020, , 48.40, 10.18, 55.60, 1025.44, -0.30, 0.0, 20.35, 85.77, 90.5, 355, 10.7, 32.81820, 34.84210, 4.4432, 34.8421, 32.8182, 90.90, 2.9791, 1462.12, 106.10, 35.2, 3.07, 4.5, 52
2008/04/03, 01:12:14, 3838.00, 0.00, 1.53, 2.00, 1024.8, 65.1745520, -5.0444270, , 61.10, 11.34, 58.00, 1025.47, -0.30, 0.0, 20.35, 85.72, 90.5, 354, 9.6, 32.82810, 34.84090, 4.4554, 34.8409, 32.8281, 92.80, 2.9814, 1462.12, 110.10, 37.2, 3.62, 3.7, 52
2008/04/03, 01:13:14, 3821.00, 0.00, 1.40, 2.00, 1024.6, 65.1762020, -5.0378570, , 59.50, 11.61, 57.50, 1024.93, -0.20, 0.0, 20.35, 85.62, 90.6, 352, 8.6, 32.81480, 34.83950, 4.4419, 34.8395, 32.8148, 92.40, 2.9831, 1462.13, 103.70, 23.0, 3.40, 3.1, 52
2008/04/03, 01:14:13, 3810.00, 0.00, 1.45, 2.00, 1024.4, 65.1778250, -5.0314800, , 60.30, 13.34, 55.70, 1025.26, -0.20, 0.0, 20.35, 85.64, 90.7, 353, 8.6, 32.82180, 34.84130, 4.4480, 34.8413, 32.8218, 91.50, 2.9837, 1462.13, 117.60, 17.0, 2.58, 2.3, 52
2008/04/03, 01:15:13, 3811.00, 0.00, 1.53, 2.00, 1024.2, 65.1794770, -5.0250550, , 58.20, 11.39, 54.80, 1025.00, -0.10, 0.0, 20.35, 85.69, 90.7, 347, 8.2, 32.82670, 34.83890, 4.4557, 34.8389, 32.8267, 92.80, 2.9827, 1462.13, 99.60, 14.5, 3.08, 3.4, 52
2008/04/03, 01:16:14, 3786.00, 0.00, 1.45, 2.10, 1024.1, 65.1811780, -5.0183200, , 59.30, 13.09, 56.20, 1025.00, -0.10, 0.0, 20.35, 85.72, 90.7, 353, 9.2, 32.83500, 34.84040, 4.4635, 34.8404, 32.8350, 92.80, 2.9811, 1462.12, 93.20, 40.1, 3.22, 4.0, 52
2008/04/03, 01:17:14, 3759.00, 0.00, 1.48, 2.10, 1024.4, 65.1829070, -5.0117130, , 63.90, 12.33, 59.90, 1025.27, 0.10, 0.0, 20.35, 85.69, 90.7, 351, 9.6, 32.82760, 34.84060, 4.4551, 34.8406, 32.8276, 92.10, 2.9747, 1462.09, 87.80, 28.3, 3.13, 4.4, 52
2008/04/03, 01:18:14, 3748.00, 0.00, 1.51, 2.10, 1024.4, 65.1845480, -5.0052250, , 55.50, 11.60, 57.70, 1024.66, -0.30, 0.0, 20.35, 85.55, 90.7, 350, 9.0, 32.82490, 34.84090, 4.4519, 34.8409, 32.8249, 91.50, 2.9657, 1462.06, 87.60, 19.1, 2.93, 3.6, 52
2008/04/03, 01:19:14, 3705.00, 0.00, 1.62, 2.10, 1024.3, 65.1862530, -4.9985950, , 59.40, 11.80, 59.00, 1025.05, -0.10, 0.0, 20.35, 85.72, 90.7, 350, 9.4, 32.84320, 34.84140, 4.4717, 34.8414, 32.8432, 91.50, 2.9573, 1462.02, 99.60, 18.8, 2.28, 3.6, 52
2008/04/03, 01:20:14, 3701.00, 0.00, 1.62, 2.10, 1024.3, 65.1879530, -4.9917650, , 59.30, 13.15, 55.80, 1025.11, 0.00, 0.0, 20.35, 85.67, 90.9, 349, 10.3, 32.82500, 34.84290, 4.4500, 34.8429, 32.8250, 90.90, 2.9510, 1461.99, 83.60, 20.1, 2.27, 4.9, 52
2008/04/03, 01:21:14, 3730.00, 0.00, 1.59, 2.10, 1024.0, 65.1896680, -4.9848930, , 65.70, 11.59, 58.40, 1024.75, -0.10, 0.0, 20.35, 85.64, 90.8, 352, 10.6, 32.82940, 34.84480, 4.4531, 34.8448, 32.8294, 91.20, 2.9463, 1461.98, 88.20, 35.5, 3.39, 5.1, 52
2008/04/03, 01:22:14, 3767.00, 0.00, 1.51, 2.10, 1023.9, 65.1913450, -4.9780950, , 63.60, 13.17, 56.20, 1024.73, -0.10, 0.0, 20.35, 85.77, 90.7, 352, 10.4, 32.81940, 34.84680, 4.4401, 34.8468, 32.8194, 90.90, 2.9402, 1461.95, 90.20, 36.4, 3.96, 4.8, 52
2008/04/03, 01:23:14, 3824.00, 0.00, 1.45, 2.10, 1024.1, 65.1931370, -4.9713370, , 55.40, 11.66, 57.20, 1025.07, -0.10, 0.0, 20.35, 85.72, 90.7, 349, 11.1, 32.81300, 34.84810, 4.4318, 34.8481, 32.8130, 90.60, 2.9257, 1461.89, 90.70, 29.0, 3.48, 5.4, 52
2008/04/03, 01:24:14, 3854.00, 0.00, 1.40, 2.00, 1024.3, 65.1948670, -4.9646200, , 59.60, 11.20, 57.40, 1024.73, -0.10, 0.0, 20.35, 85.74, 90.7, 353, 11.0, 32.80550, 34.85240, 4.4193, 34.8524, 32.8055, 90.90, 2.9055, 1461.81, 87.60, 41.6, 4.20, 5.5, 52
2008/04/03, 01:25:14, 3851.00, 0.00, 1.45, 2.00, 1024.2, 65.1965950, -4.9581700, , 53.10, 12.23, 58.60, 1024.98, -0.20, 0.0, 20.35, 85.77, 90.7, 353, 10.7, 32.79950, 34.85560, 4.4097, 34.8556, 32.7995, 90.90, 2.8897, 1461.75, 84.30, 34.5, 4.11, 5.3, 52
2008/04/03, 01:26:14, 3854.00, 0.00, 1.42, 2.00, 1024.0, 65.1983180, -4.9514380, , 57.10, 11.26, 57.60, 1024.78, -0.30, 0.0, 20.35, 85.79, 90.8, 350, 10.7, 32.78940, 34.85450, 4.3994, 34.8545, 32.7894, 92.40, 2.8812, 1461.71, 95.60, 25.5, 2.94, 4.7, 52
2008/04/03, 01:27:14, 3855.00, 0.00, 1.45, 1.90, 1024.0, 65.2000820, -4.9446680, , 55.50, 11.52, 57.60, 1024.92, -0.10, 0.0, 20.35, 85.91, 90.8, 348, 10.2, 32.77580, 34.85440, 4.3844, 34.8544, 32.7758, 92.10, 2.8758, 1461.69, 79.10, 22.8, 3.37, 5.0, 52
2008/04/03, 01:28:14, 3863.00, 0.00, 1.34, 1.90, 1024.2, 65.2018480, -4.9379350, , 55.90, 11.62, 58.20, 1025.22, -0.10, 0.0, 20.35, 85.89, 91.0, 350, 11.4, 32.76540, 34.85380, 4.3734, 34.8538, 32.7654, 91.80, 2.8686, 1461.66, 80.40, 36.0, 3.92, 6.3, 52
2008/04/03, 01:29:14, 3888.00, 0.00, 1.51, 1.90, 1024.2, 65.2035270, -4.9310950, , 61.20, 13.33, 57.80, 1024.90, -0.10, 0.0, 20.35, 85.96, 91.0, 349, 10.2, 32.76590, 34.85480, 4.3730, 34.8548, 32.7659, 92.10, 2.8637, 1461.63, 88.70, 30.2, 3.58, 4.4, 52
2008/04/03, 01:30:13, 3873.00, 0.00, 1.45, 1.90, 1024.2, 65.2051980, -4.9246330, , 61.60, 12.00, 56.70, 1024.94, -0.10, 0.0, 20.35, 86.21, 91.1, 350, 10.6, 32.75740, 34.86050, 4.3581, 34.8605, 32.7574, 93.00, 2.8612, 1461.63, 76.90, 27.7, 3.42, 5.2, 52
2008/04/03, 01:31:14, 3868.00, 0.00, 1.28, 1.90, 1024.0, 65.2068920, -4.9179770, , 58.50, 11.64, 58.50, 1025.43, -0.10, 0.0, 20.35, 86.06, 91.2, 350, 10.1, 32.73450, 34.86590, 4.3275, 34.8659, 32.7345, 96.70, 2.8602, 1461.63, 89.20, 27.9, 3.22, 4.7, 52
2008/04/03, 01:32:14, 3871.00, 0.00, 1.37, 1.90, 1024.3, 65.2085270, -4.9113370, , 57.60, 11.69, 55.90, 1025.06, 0.10, 0.0, 20.35, 86.16, 91.4, 347, 10.0, 32.71440, 34.86610, 4.3049, 34.8661, 32.7144, 96.40, 2.8589, 1461.63, 84.30, 14.3, 2.90, 4.6, 52